Flag for United Kingdom Weather past 2 weeks in Oxford, England, United Kingdom

55 °F

Passing clouds.

Feels Like: 51 °F
Forecast: N/A
Wind: 18 mph from Southwest

Location: Benson

Current Time: Nov 30, 2015 at 9:46:25 PM

Latest Report: Nov 30, 2015 at 8:50 PM

Visibility: N/A

Pressure: 30.01 "Hg

Humidity: 88%

Dew point: 52 °F

Location of OxfordLocation

Historic Weather in Oxford — Graph


Oxford temperature yesterday

Maximum temperature yesterday: 55 °F (at 12:50 PM)
Minimum temperature yesterday: 48 °F (at 12:50 AM)
Average temperature yesterday: 51 °F

Past Weeks' High & Low Weather Summary

High61 °F (Nov 17, 2:50 PM)100% (Nov 16, 8:50 PM)30.27 "Hg (Nov 16, 8:50 PM)
Low23 °F (Nov 22, 2:50 AM)52% (Nov 21, 2:50 PM)29.47 "Hg (Nov 17, 2:50 PM)
Average47 °F84%29.87 "Hg
* Reported Nov 15 7:50 PM — Nov 30 7:50 PM, Oxford, Weather by CustomWeather, © 2015

Note: Actual official high and low records may vary slightly from our data, if they occured in-between our weather recording intervals... More about our weather records


Oxford weather history for previous 24 hours

Time TempWeatherWind HumidityBarometerVisibility
7:50 PM
Mon, Nov 30
55 °FPassing clouds.21 mph88%29.98 "HgN/A
6:50 PM55 °FOvercast.22 mph88%29.95 "HgN/A
5:50 PM55 °FOvercast.24 mph82%29.92 "HgN/A
4:50 PM55 °FDrizzle. Mostly cloudy.23 mph88%29.89 "HgN/A
3:50 PM54 °FPartly sunny.21 mph88%29.89 "HgN/A
2:50 PM54 °FOvercast.21 mph88%29.89 "HgN/A
1:50 PM54 °FOvercast.22 mph82%29.89 "HgN/A
12:50 PM54 °FBroken clouds.22 mph77%29.89 "HgN/A
11:50 AM54 °FMore clouds than sun.24 mph82%29.92 "HgN/A
10:50 AM54 °FOvercast.20 mph77%29.95 "HgN/A
9:50 AM52 °FOvercast.17 mph88%29.95 "HgN/A
9:03 AM50 °FDrizzle. Mostly cloudy.15 mph94%29.98 "Hg2 mi
8:50 AM52 °FDrizzle. Mostly cloudy.17 mph88%29.98 "Hg3 mi
7:50 AM50 °FMore clouds than sun.15 mph94%29.98 "HgN/A
6:50 AM50 °FLight rain. Mostly cloudy.16 mph94%29.98 "HgN/A
5:50 AM46 °FPassing clouds.10 mph93%30.01 "HgN/A
4:50 AM45 °FPassing clouds.8 mph93%30.04 "HgN/A
3:50 AM46 °FPartly cloudy.8 mph76%30.04 "HgN/A
2:50 AM45 °FPartly cloudy.6 mph81%30.07 "HgN/A
1:50 AM45 °FPassing clouds.6 mph81%30.04 "HgN/A
12:50 AM46 °FPartly cloudy.6 mph82%30.04 "HgN/A
11:50 PM
Sun, Nov 29
48 °FPartly cloudy.7 mph71%30.01 "HgN/A
10:50 PM48 °FPassing clouds.9 mph76%29.98 "HgN/A
9:50 PM48 °FPassing clouds.10 mph82%29.95 "HgN/A
Weather by CustomWeather, © 2015

See weather overviewHow to use our weather pages